AMC-9 (GE-12)

Last updated on Thu Dec 14 2017 00:19:10 GMT+0000 (Coordinated Universal Time)

1 27820U 03024A 17347.55879365 .00000024 00000-0 00000-0 0 9994 2 27820 0.3962 88.2169 0017850 240.6389 351.2960 0.99030374 53210
UTC large
Height (km)
Speed (km/s)
/
Latitude / Longitude
Inclination (degrees)
Orbital Period (minutes)
Azimuth
Elevation
Range (km)
Doppler Factor

Next 0 passes for location: London (51.5072 / 0.1276)

Sorry there are no passes over London.